Regional Weather Roundup
Issued by NWS

Home | Current Version | Previous Version | Graphics & Text | Print | Product List | Glossary On
Versions: 1 2 3 4 5 6 7 8 9 10 11 12 13 14 15 16 17 18 19 20 21 22 23 24 25 26 27 28 29 30 31 32 33 34 35 36 37 38 39 40 41 42 43 44 45 46 47 48 49 50
000
ASUS43 KDMX 260001
RWRIA

WEATHER ROUNDUP FOR IOWA
NATIONAL WEATHER SERVICE DES MOINES IA
700 PM CDT TUE APR 25 2017

NOTE: "FAIR" INDICATES FEW OR NO CLOUDS BELOW 12,000 FEET WITH NO
SIGNIFICANT WEATHER AND/OR OBSTRUCTIONS TO VISIBILITY.

* - THESE STATIONS ARE NOT NWS STATIONS...THUS NOT UNDER NWS
QUALITY CONTROL.  THEY ALSO DO NOT REPORT WEATHER SUCH
AS PRECIPITATION OR FOG.

IAZ001>003-012>014-020>022-031>034-043>046-260100-
   NORTHWEST IOWA

CITY           SKY/WX    TMP DP  RH WIND       PRES   REMARKS
CARROLL *      CLOUDY    48  46  93 N23       29.51R
CHEROKEE *     DRIZZLE   42  42 100 N13       29.57S
DENISON *      CLOUDY    46  43  87 N17       29.55R
LE MARS *      CLOUDY    43  41  93 N15       29.61S FOG
ORANGE CITY *  DRIZZLE   39  39 100 N13G18    29.60R WCI  32
SHELDON *      MIX PCPN  41  39  93 NW17      29.58S
SIOUX CITY     LGT RAIN  42  41  96 N18G25    29.59S
6HR MIN TEMP:  42; 6HR MAX TEMP:  45; 6HR PCP:  0.05;

SPENCER        LGT RAIN  43  41  93 N14       29.57R FOG
6HR MIN TEMP:  43; 6HR MAX TEMP:  44; 6HR PCP:  0.01;

STORM LAKE *   MIX PCPN  43  41  93 N15G24    29.54S
$$

IAZ055>058-069>071-079>083-090>094-260100-
   SOUTHWEST IOWA

CITY           SKY/WX    TMP DP  RH WIND       PRES   REMARKS
ATLANTIC *     CLOUDY    50  46  87 N17G25    29.50R
AUDUBON *      CLOUDY    48  45  87 N15G24    29.51S
CLARINDA *     CLOUDY    55  46  71 N16       29.50R
COUNCIL BLFS * CLOUDY    45  45 100 NW18      29.53R
CRESTON *      CLOUDY    61  52  72 NW10      29.46R
HARLAN  *      CLOUDY    48  46  93 N18       29.55R FOG
LAMONI         CLOUDY    67  54  63 SW5       29.44R
6HR MIN TEMP:  67; 6HR MAX TEMP:  73;

RED OAK *      CLOUDY    52  46  82 N16       29.51R
SHENANDOAH *   CLOUDY    52  46  82 N15G22    29.51R
$$

IAZ047>049-059>061-072>074-084-260100-
   CENTRAL IOWA

CITY           SKY/WX    TMP DP  RH WIND       PRES   REMARKS
AMES           CLOUDY    68  52  56 S7        29.44R
6HR MIN TEMP:  66; 6HR MAX TEMP:  73;

ANKENY *       CLOUDY    68  50  52 SE5       29.44S
BOONE *        CLOUDY    61  52  72 NW9       29.44R
CHARITON *     CLOUDY    68  54  60 SW7       29.44R
DES MOINES     CLOUDY    70  51  51 SE5       29.43R
6HR MIN TEMP:  70; 6HR MAX TEMP:  75;

GRINNELL*      CLOUDY    69  45  41 E5        29.45S
KNOXVILLE *    CLOUDY    70  50  49 CALM      29.42R
MARSHALLTOWN   CLOUDY    68  48  48 SE6       29.43S
6HR MIN TEMP:  63; 6HR MAX TEMP:  73;

NEWTON *       CLOUDY    68  46  45 E6        29.42S
PELLA *        CLOUDY    71  47  43 SE5       29.44R
PERRY *        CLOUDY    56  47  70 NW18      29.46R
$$

IAZ004>006-015-016-023>025-035-036-260100-
   NORTH CENTRAL IOWA

CITY           SKY/WX    TMP DP  RH WIND       PRES   REMARKS
ALGONA *       CLOUDY    46  46 100 N18G24    29.52S
CLARION *      CLOUDY    54  54 100 N16       29.48S
ESTHERVILLE    LGT RAIN  43  43 100 N14       29.55R FOG
6HR MIN TEMP:  40; 6HR MAX TEMP:  43; 6HR PCP:  0.05;

FORT DODGE *   CLOUDY    48  41  76 N9G18     29.51R
MASON CITY     CLOUDY    54  51  90 N13       29.50R
6HR MIN TEMP:  50; 6HR MAX TEMP:  54; 6HR PCP: TRACE;

FOREST CITY *  CLOUDY    50  50 100 N13G18    29.50S
WEBSTER CITY * CLOUDY    55  50  82 N14       29.45S
IOWA FALLS *   CLOUDY    67  49  51 SE14      29.47R
$$

IAZ007>011-017>019-026>030-037>042-050>054-066-260100-
   NORTHEAST IOWA

CITY           SKY/WX    TMP DP  RH WIND       PRES   REMARKS
CEDAR RAPIDS   CLOUDY    72  47  40 S3        29.44S
6HR MIN TEMP:  71; 6HR MAX TEMP:  75;

CHARLES CITY * CLOUDY    63  54  72 NE8       29.46S
CLINTON *      CLOUDY    74  46  36 S9        29.47S
DECORAH *      CLOUDY    66  48  52 E10       29.47F
DUBUQUE        CLOUDY    71  45  39 SE8       29.48S
6HR MIN TEMP:  66; 6HR MAX TEMP:  74; 6HR PCP: TRACE;

MONTICELLO *   CLOUDY    73  43  33 SE8       29.45S
OELWEIN *      CLOUDY    70  45  40 SE6       29.46S
WATERLOO       CLOUDY    70  45  40 SE3       29.44R
6HR MIN TEMP:  64; 6HR MAX TEMP:  73; 6HR PCP:  0.01;

$$

IAZ064-065-067-068-078-260100-
   EAST CENTRAL IOWA

CITY           SKY/WX    TMP DP  RH WIND       PRES   REMARKS
DAVENPORT      MOCLDY    76  42  29 S9        29.46S
6HR MIN TEMP:  71; 6HR MAX TEMP:  80;

IOWA CITY      CLOUDY    74  48  39 S8        29.45S
6HR MIN TEMP:  73; 6HR MAX TEMP:  78;

MUSCATINE *    CLOUDY    75  46  35 SE3       29.44S
QUAD CITIES    MOCLDY    75  45  34 S9        29.45R
6HR MIN TEMP:  73; 6HR MAX TEMP:  80;

$$

IAZ062-063-075>077-085>089-095>099-260100-
   SOUTHEAST IOWA

CITY           SKY/WX    TMP DP  RH WIND       PRES   REMARKS
BURLINGTON     CLOUDY    74  50  42 SE9       29.43S
6HR MIN TEMP:  73; 6HR MAX TEMP:  78;

FAIRFIELD *    CLOUDY    72  50  46 SE6       29.43R
FORT MADISON * CLOUDY    75  48  38 SE8       29.44S
KEOKUK *       CLOUDY    75  52  43 SE9       29.41S
OSKALOOSA *    PTSUNNY   72  48  42 SE6       29.43R
CENTERVILLE *    N/A     68  55  64 CALM      29.45R
OTTUMWA        CLOUDY    72  51  47 S5        29.43R
6HR MIN TEMP:  71; 6HR MAX TEMP:  76;

WASHINGTON *   CLOUDY    73  48  40 SE7       29.45S
$$

ABBREVIATIONS USED IN REMARKS
   TC - TEMPERATURES IN CELSIUS
  WCI - WIND CHILL INDEX
   HX - HEAT INDEX
  VSB - VISIBILITY
$$




USA.gov is the U.S. government's official web portal to all federal, state and local government web resources and services.